Погода в Отрадном

Россия / Хабаровский край     47°29′36″N   134°42′08″E
темп.,
°C
ветер,
м/с
пор.,
м/с
влажн.,
%
обл.,
%
осадки,
мм/ч
давл.,
гПа
погр.,
м
24 мая, вт
вт2401:00+13ююв357759 0.1 100589
04:00+12зюз1383100 0.1 100474
07:00+13ююв2990100 0.7 1005344
10:00+19юз5865100 0.7 1005667
13:00+23юз5753100 0.0 10041322
16:00+17ссз6986100 0.6 1005507
19:00+13зсз1492100 1.2 1007394
22:00+11ююз1197100 7.9 1009120
25 мая, ср
ср2501:00+11юз1294100 0.2 100964
04:00+9ююз2295100 0.2 101038
07:00+10св129494 0.0 1011116
10:00+8св3497100 0.0 1012227
13:00+11св3492100 0.0 1012438
16:00+12в248599 0.1 1011544
19:00+14всв267798 0.0 1010701
22:00+11св2288100 0.0 101035
26 мая, чт
чт2601:00+10всв228484 0.0 100957
04:00+8всв238898 0.0 100862
07:00+11всв2384100 0.0 1008120
10:00+17всв236699 0.0 1007514
13:00+21ссв225797 0.1 1005973
16:00+22св445798 0.1 1003852
19:00+20св3772100 0.0 1002251
22:00+14ююв228992 0.8 100331
27 мая, пт
пт2701:00+14юз1192100 1.6 100211
04:00+13вюв2291100 1.6 100232
07:00+13в2595100 0.9 1002129
10:00+15вюв3789100 1.4 1002371
13:00+20юв356170 0.9 10001387
16:00+22ююз235299 1.3 9991372
19:00+17юв4780100 0.8 998253
22:00+13юв338991 0.8 99957
28 мая, сб
сб2801:00+11ю23916 0.0 99842
04:00+10юв229297 0.0 100037
07:00+13ю018467 0.0 100065
10:00+18ссв116597 0.0 1000612
13:00+21ссз235775 0.0 9991204
16:00+21сз345935 0.9 9991386
19:00+19в117711 1.4 99940
22:00+15юв228784 1.6 100128